Weather History for KBLI - March, 2014

Change the Weather History Date:

Sunday, March 9, 2014

  Actual Average Record
Temperature  
Mean Temperature 50 °F 43 °F  
Max Temperature 55 °F 51 °F 67 °F (1995)
Min Temperature 44 °F 35 °F 16 °F (1951)
Degree Days  
Heating Degree Days 15 22  
Month to date heating degree days 192 202  
Cooling Degree Days 0 0  
Month to date cooling degree days 0 0  
Year to date cooling degree days 0 0  
Moisture  
Dew Point 45 °F    
Average Humidity 79    
Maximum Humidity 92    
Minimum Humidity 66    
Precipitation  
Precipitation T in 0.09 in 0.84 in (1954)
Month to date precipitation 2.84 0.93  
Year to date precipitation 8.42 8.62  
Sea Level Pressure  
Sea Level Pressure 29.94 in    
Wind  
Wind Speed 5 mph (South)    
Max Wind Speed 16 mph    
Max Gust Speed 23 mph    
Visibility 10 miles    
Events Rain    
T = Trace of Precipitation, MM = Missing Value Source: NWS Daily Summary

Daily Weather History Graph

Daily Weather History Graph

Search for Another Location

Airport or City:

Trip Planner

Search our weather history database for the weather conditions in past years. The results will help you decide how hot, cold, wet, or windy it might be!

Date:

Astronomy

Mar. 09, 2014 Rise Set
Actual Time 7:35 AM PDT 7:06 PM PDT
Civil Twilight 7:04 AM PDT 7:37 PM PDT
Nautical Twilight 6:27 AM PDT 8:14 PM PDT
Astronomical Twilight 5:50 AM PDT 8:51 PM PDT
Moon 12:42 PM PDT (3/9) 3:27 AM PDT (3/9)
Length of Visible Light 12h 33m
Length of Day
11h 30m
First Quarter, 62% of the Moon is Illuminated
Mar 9
First Quarter
Mar 16
Full
Mar 23
Last Quarter
Mar 30
New
Apr 7
First Quarter

Hourly Weather History & Observations

Time (PDT) Temp. Dew Point Humidity Pressure Visibility Wind Dir Wind Speed Gust Speed Precip Events Conditions
12:25 AM 51.1 °F 48.9 °F 92% 29.78 in 10.0 mi SSE 16.1 mph 23.0 mph 0.00 in Rain Light Rain
12:53 AM 50.0 °F 48.0 °F 93% 29.81 in 10.0 mi South 15.0 mph - 0.00 in   Overcast
1:12 AM 51.1 °F 48.0 °F 89% 29.80 in 10.0 mi South 11.5 mph - N/A   Overcast
1:30 AM 51.1 °F 48.0 °F 89% 29.81 in 10.0 mi South 10.4 mph - N/A   Overcast
1:53 AM 51.1 °F 46.9 °F 86% 29.85 in 10.0 mi South 10.4 mph - N/A   Overcast
3:53 AM 51.1 °F 46.0 °F 83% 29.86 in 10.0 mi South 6.9 mph - N/A   Overcast
4:53 AM 51.1 °F 44.1 °F 77% 29.88 in 10.0 mi South 5.8 mph - N/A   Mostly Cloudy
5:53 AM 48.0 °F 44.1 °F 86% 29.90 in 10.0 mi Calm Calm - N/A   Mostly Cloudy
6:53 AM 48.0 °F 43.0 °F 83% 29.91 in 10.0 mi SSE 10.4 mph - N/A   Clear
7:53 AM 48.0 °F 43.0 °F 83% 29.93 in 10.0 mi SSE 6.9 mph - N/A   Clear
8:53 AM 48.9 °F 44.1 °F 83% 29.95 in 10.0 mi South 5.8 mph - N/A   Clear
9:53 AM 51.1 °F 44.1 °F 77% 29.97 in 10.0 mi South 6.9 mph - N/A   Clear
10:53 AM 51.1 °F 44.1 °F 77% 30.00 in 10.0 mi South 6.9 mph - N/A   Scattered Clouds
11:53 AM 53.1 °F 43.0 °F 69% 30.02 in 10.0 mi South 6.9 mph - N/A   Mostly Cloudy
12:53 PM 53.1 °F 43.0 °F 69% 30.04 in 10.0 mi South 9.2 mph - N/A   Mostly Cloudy
1:53 PM 53.1 °F 45.0 °F 74% 30.03 in 10.0 mi South 9.2 mph - N/A   Overcast
2:53 PM 53.1 °F 45.0 °F 74% 30.02 in 10.0 mi South 5.8 mph - N/A   Mostly Cloudy
3:53 PM 54.0 °F 45.0 °F 72% 30.01 in 10.0 mi South 4.6 mph - N/A   Clear
4:53 PM 53.1 °F 45.0 °F 74% 30.01 in 10.0 mi South 4.6 mph - N/A   Scattered Clouds
5:53 PM 52.0 °F 45.0 °F 77% 30.00 in 10.0 mi South 5.8 mph - N/A   Clear
6:53 PM 51.1 °F 45.0 °F 80% 29.99 in 10.0 mi SSE 3.5 mph - N/A   Clear
7:53 PM 48.9 °F 45.0 °F 86% 29.99 in 10.0 mi South 3.5 mph - N/A   Scattered Clouds
8:53 PM 48.0 °F 44.1 °F 86% 29.98 in 10.0 mi Calm Calm - N/A   Scattered Clouds
9:53 PM 46.9 °F 43.0 °F 86% 29.98 in 10.0 mi Calm Calm - N/A   Mostly Cloudy
10:53 PM 46.0 °F 43.0 °F 89% 29.97 in 10.0 mi Calm Calm - N/A   Partly Cloudy
11:53 PM 45.0 °F 43.0 °F 93% 29.98 in 10.0 mi Calm Calm - N/A   Partly Cloudy
12:53 AM 44.1 °F 42.1 °F 93% 29.97 in 10.0 mi Calm Calm - N/A   Overcast